NOAA 16 DEB, 42392

Orbit data source: Space-Track

NOAA 16 DEB, 42392 is space debris in SSO originally from a launch on Thu, 21 Sep 2000 UTC launched from the Air Force Western Test Range (AFWTR). Debris objects in space refer to the collection of defunct objects orbiting the Earth. Examples of debris include non-operational satellites, rocket bodies, and fragments generated from explosions, collisions, or faulty payload assembly.

Loading next visibility...
Identifier
42392, 2000-055SL
Orbit
SSO
Country
Flag of USUS
Related business
Manufacturer
Unknown
Mission
Spacecraft
Bus & Motor
Unknown
Mass
Unknown
Launch date (UTC)
2000-09-21 (25 years ago)
Launch vehicle
Unknown
Launch site
Air Force Western Test Range (AFWTR)
Object type
Payload
Rocket body
Debris
Shape & HBR
Unknown shape, 0.1 m
Radar Cross Section
Small (<0.1 m²)

Expand to show TLE details & history
Last TLE update: 3 days ago

TLE from 3 days ago
0 NOAA 16 DEB
1 42392U 00055SL  26035.92778314  .00817409  00000-0  19681-1 0  9992
2 42392  98.9370 273.4013 0010988  59.7659 300.4668 15.38856003517059
Epoch: 2026-02-04T22:16Z
TLE epoch observation values (Epoch: 2026-02-04T22:16:00.463Z)
Latitude
-0.00001°
Longitude
164.31204°
Altitude
448.76 km
Speed
7.645 km/s
True Right ascension
18h 13m 36s
True Declination
0° 00' 00"
Sunlit
Object was in daylight at epoch
Visualization orbit readout
Latitude
Unknown
Longitude
Unknown
Altitude
Unknown
Speed
Unknown
Apparent Right ascension
Unknown
Apparent Declination
Unknown
Sunlit
N/A
Visualization observer readout
Local Sidereal Time
15:25:52
Azimuth
Unknown
Elevation
Unknown
Doppler factor
Unknown
Orbital elements
Apogee altitude
454.003 km
Perigee altitude
439.006 km
Semi-major axis
6,824.641 km
Eccentricity
0.0011
Inclination
98.937°
RAAN
273.4013°
Arg. of periapsis
59.7659°
True anomaly
300.3582°
Mean anomaly
300.4668°
Eccentric anomaly
300.41251°
Mean motion
3.84967 °/min
Orbital period
93.51 mins
BSTAR
0.019681
Loading maneuver chart data...
Computing Atmospheric mass density...
Loading historical data...
Loading historical data...
Loading historical data...
Loading historical data...
Loading historical data...
Loading historical data...
Loading historical data...

Documentation

Showing up to 5 results
|